[TLELIST] Archives

 

[TLELIST] Current TLEs

July 31st 2025 PDT

0 HST 1 20580U 90037B 25211.87730514 .00006949 00000-0 25657-3 0 9996 2 20580 28.4677 108.6806 0001806 209.3207 150.7286 15.25721594739366 0 ISS (ZARYA) 1 25544U 98067A 25212.16266026 .00011089 00000-0 20032-3 0 9990 2 25544 51.6344 89.1118 0001873 135.4820 224.6320 15.50237195521987 0 CXO 1 25867U 99040B 25214.39624013 .00000672 00000-0 00000-0 0 9997 2 25867 50.4225 127.7080 8348166 310.0398 0.6414 0.37803800 16116 ...Continue Reading

[TLELIST] Current TLEs

July 30th 2025 PDT

0 HST 1 20580U 90037B 25210.83072120 .00006326 00000-0 23298-3 0 9991 2 20580 28.4678 115.7789 0001856 197.4133 162.6398 15.25707255739203 0 ISS (ZARYA) 1 25544U 98067A 25211.45188657 .00012646 00000-0 22742-3 0 9994 2 25544 51.6362 92.6301 0002121 130.3479 220.4446 15.50222022521864 0 CXO 1 25867U 99040B 25211.75209273 .00000581 00000-0 00000-0 0 9990 2 25867 50.4040 127.7709 8352943 310.0518 0.6417 0.37806133 16105 ...Continue Reading

[TLELIST] Current TLEs

July 29th 2025 PDT

0 HST 1 20580U 90037B 25210.04577718 .00006184 00000-0 22763-3 0 9995 2 20580 28.4679 121.1030 0001888 188.6554 171.4008 15.25697515739346 0 ISS (ZARYA) 1 25544U 98067A 25210.16425717 .00013032 00000-0 23438-3 0 9995 2 25544 51.6345 99.0171 0001921 128.7802 231.3359 15.50188201521672 0 CXO 1 25867U 99040B 25211.75209273 .00000581 00000-0 00000-0 0 9990 2 25867 50.4040 127.7709 8352943 310.0518 0.6417 0.37806133 16105 ...Continue Reading

[TLELIST] Current TLEs

July 28th 2025 PDT

0 HST 1 20580U 90037B 25208.93376480 .00006389 00000-0 23552-3 0 9997 2 20580 28.4677 128.6452 0001930 176.4393 183.6216 15.25684612738910 0 ISS (ZARYA) 1 25544U 98067A 25209.13279725 .00012211 00000-0 22036-3 0 9997 2 25544 51.6347 104.1294 0001992 125.2997 234.8178 15.50161265521514 0 CXO 1 25867U 99040B 25211.75209273 .00000581 00000-0 00000-0 0 9990 2 25867 50.4040 127.7709 8352943 310.0518 0.6417 0.37806133 16105 ...Continue Reading

[TLELIST] Current TLEs

July 27th 2025 PDT

0 HST 1 20580U 90037B 25207.88715621 .00006282 00000-0 23154-3 0 9994 2 20580 28.4675 135.7434 0001980 164.8126 195.2528 15.25671662738755 0 ISS (ZARYA) 1 25544U 98067A 25208.16578800 .00012255 00000-0 22132-3 0 9990 2 25544 51.6347 108.9215 0001985 120.4338 239.6847 15.50135736521360 0 CXO 1 25867U 99040B 25209.10722987 .00000562 00000-0 00000+0 0 9996 2 25867 50.3751 127.8524 8359077 310.0488 0.5780 0.37806077 27257 ...Continue Reading

[TLELIST] Current TLEs

July 26th 2025 PDT

0 HST 1 20580U 90037B 25206.97136623 .00005562 00000-0 20415-3 0 9999 2 20580 28.4671 141.9545 0002032 155.2728 204.7964 15.25659578738611 0 ISS (ZARYA) 1 25544U 98067A 25207.13429386 .00011750 00000-0 21275-3 0 9996 2 25544 51.6350 114.0333 0002014 117.9284 242.1909 15.50106102521204 0 CXO 1 25867U 99040B 25209.10722987 .00000562 00000-0 00000+0 0 9996 2 25867 50.3751 127.8524 8359077 310.0488 0.5780 0.37806077 27257 ...Continue Reading

[TLELIST] Current TLEs

July 25th 2025 PDT

0 HST 1 20580U 90037B 25206.18639832 .00005845 00000-0 21503-3 0 9995 2 20580 28.4670 147.2783 0002058 146.9713 213.1010 15.25650446738758 0 ISS (ZARYA) 1 25544U 98067A 25206.16725053 .00012111 00000-0 21923-3 0 9990 2 25544 51.6348 118.8254 0002056 114.0852 246.0352 15.50079803521055 0 CXO 1 25867U 99040B 25209.10722987 .00000562 00000-0 00000+0 0 9996 2 25867 50.3751 127.8524 8359077 310.0488 0.5780 0.37806077 27257 ...Continue Reading

[TLELIST] Current TLEs

July 25th 2025 PDT

0 HST 1 20580U 90037B 25206.18639832 .00005845 00000-0 21503-3 0 9995 2 20580 28.4670 147.2783 0002058 146.9713 213.1010 15.25650446738758 0 ISS (ZARYA) 1 25544U 98067A 25206.16725053 .00012111 00000-0 21923-3 0 9990 2 25544 51.6348 118.8254 0002056 114.0852 246.0352 15.50079803521055 0 CXO 1 25867U 99040B 25209.10722987 .00000562 00000-0 00000+0 0 9996 2 25867 50.3751 127.8524 8359077 310.0488 0.5780 0.37806077 27257 ...Continue Reading

[TLELIST] Current TLEs

July 24th 2025 PDT

0 HST 1 20580U 90037B 25204.94352236 .00006102 00000-0 22493-3 0 9993 2 20580 28.4665 155.7071 0002113 133.7205 226.3565 15.25636074738301 0 ISS (ZARYA) 1 25544U 98067A 25204.82343111 .00009030 00000-0 16581-3 0 9992 2 25544 51.6344 125.4774 0002359 111.9505 304.3927 15.50035709520848 0 CXO 1 25867U 99040B 25206.46147460 .00000589 00000-0 00000-0 0 9999 2 25867 50.3266 127.9554 8365602 310.0224 0.4270 0.37802997 16080 ...Continue Reading

[TLELIST] Current TLEs

July 23rd 2025 PDT

0 HST 1 20580U 90037B 25203.56980264 .00004901 00000-0 17918-3 0 9999 2 20580 28.4663 165.0233 0002161 120.6752 239.4055 15.25619513738092 0 ISS (ZARYA) 1 25544U 98067A 25204.16864096 .00010724 00000-0 19544-3 0 9993 2 25544 51.6344 128.7280 0002115 106.2807 253.8414 15.50025731520740 0 CXO 1 25867U 99040B 25206.46147460 .00000589 00000-0 00000-0 0 9999 2 25867 50.3266 127.9554 8365602 310.0224 0.4270 0.37802997 16080 ...Continue Reading
  • This mailing list is a public mailing list - anyone may join or leave, at any time.
  • This mailing list is announce-only.

International Space Station (ISS) / Hubble Space Telescope (HST) / Chandra X-Ray Observatory Orbital Data via EMAIL

Privacy Policy:

Private list